10:11
Airports
History
Links
Donate
Help keep this website running!
PayPal
Bitcoin
This page is community maintained. The information is intended for PC simulator navigation or reference.
Always use approved charts for navigation.
NA16
Bolseth
Bolseth (NA16)
Webster, North Dakota, United States (58382)
4
Lat/Lng:48° 20' 45.02" N / 98° 45' 41.44" W
48.345839 / -98.761511
Elevation:1500'ft / 457mMSL
ID / ICAO:NA16
Runways:1
Longest:14-32
Grass 370m / 1,214ft
Nearby Weather09:56 GMT 2017-11-18
Nearby weather at KDVL, Devils Lake Rgnl located 17.3 nautical miles from NA16
Altimeter: 29.89
Visibility: 10.0 statute miles
Wind: 11 knots (from 300°)
Temp: -11°c / 12°f
Humidity: 92.3%

METAR: KDVL 180956Z AUTO 30011KT 10SM FEW016 SCT030 OVC041 M11/M12 A2989 RMK AO2 SLP166 T11061122 FZRANO

(Powered by phpweather)
Nearby VORs <50NM
Nearby NDBs
Runway 14 / 32
Dimensions:370.1 x 18.3m 1214' x 60'ft
Surface:Grass
Runway 14 [A]Runway 32 [B]
Heading:147°TH 327°TH
Lat:
Lng:
48° 20' 50.04"N
98° 45' 46.16"W
48° 20' 39.99"N
98° 45' 36.72"W
User Notes and Comments
48° 20' 45.02" N / 98° 45' 41.44" W
Distance To
Airport ID:
Nearby Airports
4 Hofstad 5.7 NM
NA09 NNW 342°
(R) Anderson Private 12.7 NM
NA10 W 280°
(U) Devils Lake Rgnl 17.3 NM
KDVL ( WX ) SSW 203°
4 Lindseth Strip 20.2 NM
ND82 N 357°
(U) Cando Muni 23.7 NM
9D7 WNW 293°
4 R. Marquart Airstrip 23.9 NM
58ND SE 137°
(U) Lakota Muni 29.7 NM
5L0 SE 137°
VFR Chart
Flight Planning at SkyVector.com